OBJECT T, 57183

Orbit data source: Space-Track

You're viewing an Uncataloged Satellite

Recently launched and/or uncataloged satellites may have evolving metadata. Metadata may include but not limited to: Owner, Maufacturer, Bus, Motor, and Mission.

OBJECT T, 57183 is a satellite in SSO that was launched on Tue, 27 Jun 2023 UTC via a SOYUZ-2-1B launch vehicle from the Vostochny Cosmodrome (VOSTO). Unknown objects in Earth's orbit typically refer to objects detected orbiting the Earth but have not yet been identified or cataloged. These objects could be anything from previously untracked satellites, spent rocket stages, debris from satellite collisions, or even natural meteoroids temporarily captured by Earth's gravity.

Loading next visibility...
Identifier
57183, 2023-091T
Orbit
SSO
Country
Flag of TBDTBD
Related business
None
Manufacturer
Unknown
Mission
Operational Commercial Communications
Bus & Motor
Unknown
Mass
Unknown
Launch date (UTC)
2023-06-27 (2 years ago)
Launch vehicle
SOYUZ-2-1B
Launch site
Vostochny Cosmodrome (VOSTO)
Object type
Unknown
Shape & HBR
Box + 2 Pan, 1.5 m
Radar Cross Section
1.055 m², Medium (>0.1 m² and < 1m²)

Expand to show TLE details & history
Last TLE update: 7 hours ago

TLE from 7 hours ago
0 OBJECT T
1 57183U 23091T   25304.29603443  .00008224  00000-0  42895-3 0  9991
2 57183  97.5446 359.3063 0011943 178.3188 181.8087 15.16152838129256
Epoch: 2025-10-31T07:06Z
TLE epoch observation values (Epoch: 2025-10-31T07:06:17.374Z)
Latitude
-0.00003°
Longitude
-147.10859°
Altitude
528.795 km
Speed
7.594 km/s
True Right ascension
23h 57m 13s
True Declination
0° 00' 00"
Sunlit
Object was in full shadow at epoch
Visualization orbit readout
Latitude
Unknown
Longitude
Unknown
Altitude
Unknown
Speed
Unknown
Apparent Right ascension
Unknown
Apparent Declination
Unknown
Sunlit
N/A
Visualization observer readout
Local Sidereal Time
10:13:20
Azimuth
Unknown
Elevation
Unknown
Doppler factor
Unknown
Orbital elements
Apogee altitude
522.69 km
Perigee altitude
506.226 km
Semi-major axis
6,892.595 km
Eccentricity
0.00119
Inclination
97.5446°
RAAN
359.3063°
Arg. of periapsis
178.3188°
True anomaly
181.80439°
Mean anomaly
181.8087°
Eccentric anomaly
181.80654°
Mean motion
3.79288 °/min
Orbital period
94.91 mins
BSTAR
0.00042895
Loading maneuver chart data...
Computing Atmospheric mass density...
Loading historical data...
Loading historical data...
Loading historical data...
Loading historical data...
Loading historical data...
Loading historical data...
Loading historical data...

Documentation

Showing up to 5 results
|